Flag for Germany

Past Weather in Dachau, Bavaria, Germany — Yesterday and Last 2 Weeks

Now
55 °F

Mostly cloudy.


Feels Like: 55 °F
Forecast: 66 / 47 °F
Wind: 2 mph from North

Location: Oberpfaffenhofen
Current Time: Oct 1, 2020 at 9:41:56 pm
Latest Report: Oct 1, 2020 at 8:50 pm
Visibility: N/A
Pressure29.71 "Hg(27.98 "Hg at 502m altitude)
Humidity: 82%
Dew Point: 50 °F
Location of DachauLocation

Past Weather in Dachau — Graph

°F

Dachau Temperature Yesterday

Maximum temperature yesterday: 61 °F (at 12:50 pm)
Minimum temperature yesterday: 46 °F (at 6:20 am)
Average temperature yesterday: 53 °F

High & Low Weather Summary for the Past Weeks

 TemperatureHumidityPressure
High73 °F (Sep 17, 2:20 pm)100% (Sep 17, 12:50 am)30.27 "Hg (Sep 17, 12:50 am)
Low34 °F (Sep 28, 1:50 am)44% (Sep 27, 2:50 pm)29.53 "Hg (Sep 25, 7:20 am)
Average54 °F83%29.91 "Hg
* Reported Sep 16 8:20 pm — Oct 1 8:20 pm, Dachau. Weather by CustomWeather, © 2020

Note: Actual official high and low records may vary slightly from our data, if they occured in-between our weather recording intervals... More about our weather records

Dachau Weather History for the Previous 24 Hours

Scroll right to see more
 ConditionsComfort  
Time TempWeatherWind HumidityBarometerVisibility
8:20 pm
Thu, Oct 1
54 °FMostly cloudy.3 mph88%29.68 "HgN/A
7:50 pm54 °FOvercast.3 mph88%29.68 "HgN/A
7:20 pm55 °FOvercast.5 mph82%29.68 "HgN/A
6:50 pm59 °FSunny.5 mph77%29.68 "Hg10 mi
6:20 pm59 °FSunny.5 mph77%29.68 "Hg10 mi
5:50 pm59 °FSunny.5 mph77%29.68 "Hg10 mi
5:20 pm64 °FSunny.5 mph56%29.68 "Hg10 mi
4:50 pm64 °FSunny.6 mph56%29.68 "Hg10 mi
4:20 pm64 °FSunny.9 mph56%29.68 "Hg10 mi
3:50 pm66 °FPassing clouds.7 mph56%29.71 "HgN/A
3:20 pm64 °FPassing clouds.7 mph60%29.71 "HgN/A
2:50 pm63 °FPassing clouds.6 mph73%29.71 "HgN/A
2:20 pm61 °FPassing clouds.8 mph83%29.71 "HgN/A
1:50 pm63 °FPassing clouds.6 mph77%29.71 "HgN/A
1:20 pm63 °FPassing clouds.6 mph73%29.71 "HgN/A
12:50 pm63 °FPassing clouds.3 mph73%29.71 "HgN/A
12:20 pm61 °FPassing clouds.5 mph83%29.71 "HgN/A
11:50 am59 °FPassing clouds.2 mph82%29.74 "HgN/A
11:20 am59 °FSunny.2 mph82%29.74 "Hg10 mi
10:50 am57 °FSunny.2 mph88%29.74 "Hg10 mi
10:20 am55 °FSunny.1 mph94%29.74 "Hg10 mi
9:50 am52 °FSunny.2 mph100%29.77 "Hg10 mi
9:20 am48 °FFog.5 mph94%29.77 "Hg1 mi
8:50 am46 °FPassing clouds.6 mph93%29.77 "Hg1 mi
8:20 am43 °FPartly sunny.6 mph100%29.77 "Hg1 mi
7:50 am43 °FFog.No wind100%29.80 "Hg1 mi
7:20 am43 °FFog.5 mph100%29.80 "Hg1 mi
6:50 am43 °FFog.3 mph100%29.80 "Hg0 mi
6:20 am43 °FDense fog.2 mph100%29.80 "Hg1 mi
5:50 am43 °FDense fog.2 mph100%29.80 "Hg0 mi
5:20 am45 °FDense fog.2 mph93%29.83 "Hg0 mi
4:50 am43 °FDense fog.5 mph100%29.83 "Hg0 mi
4:20 am41 °FDense fog.2 mph100%29.83 "Hg1 mi
3:50 am43 °FDense fog.2 mph93%29.83 "Hg0 mi
3:20 am43 °FClear.No wind93%29.86 "Hg1 mi
2:50 am45 °FClear.2 mph93%29.86 "Hg1 mi
2:20 am45 °FClear.No wind93%29.86 "Hg4 mi
1:50 am45 °FClear.2 mph93%29.86 "Hg1 mi
1:20 am45 °FClear.3 mph100%29.89 "HgN/A
12:50 am46 °FClear.3 mph93%29.89 "Hg2 mi
12:20 am46 °FClear.2 mph93%29.89 "Hg1 mi
11:50 pm
Wed, Sep 30
48 °FClear.3 mph94%29.92 "HgN/A
11:20 pm48 °FClear.1 mph94%29.92 "HgN/A
10:50 pm48 °FClear.1 mph94%29.92 "HgN/A
10:20 pm48 °FClear.3 mph100%29.92 "HgN/A
9:50 pm50 °FClear.3 mph94%29.92 "HgN/A
9:20 pm52 °FClear.5 mph88%29.95 "HgN/A
Weather by CustomWeather, © 2020

See weather overview